Location: Christchurch
(43.5000°S, 172.6000°E)
Time: 07:30:44
(UTC+12:00)

ISS - Visible Passes

Search period start: 21 May 2018 00:00
Search period end: 31 May 2018 00:00
Orbit: 402 x 407 km, 51.6° (Epoch: 21 May)

Date Brightness Start Highest point End Pass type
(mag) Time Alt. Az. Time Alt. Az. Time Alt. Az.
26 May -1.3 07:09:22 10° NNW 07:12:13 27° NE 07:15:07 10° ESE visible
27 May -0.7 06:18:12 10° N 06:20:11 15° NE 06:22:12 10° E visible
28 May -3.2 07:00:46 10° NW 07:04:03 62° NE 07:07:23 10° ESE visible
29 May -2.1 06:08:52 10° NNW 06:11:53 33° NE 06:14:57 10° ESE visible
30 May -1.2 05:19:43 18° NE 05:19:47 19° NE 05:22:11 10° E visible
30 May -3.8 06:52:40 10° WNW 06:55:58 62° SSW 06:59:19 10° SE visible
